Regional Weather Roundup
Issued by NWS Mt. Holly, NJ

Home | Current Version | Previous Version | Text Only | Print | Product List | Glossary On
Versions: 1 2 3 4 5 6 7 8 9 10 11 12 13 14 15 16 17 18 19 20 21 22 23 24 25 26 27
000
ASUS41 KPHI 132112
RWRPHI

REGIONAL WEATHER ROUNDUP
NATIONAL WEATHER SERVICE MOUNT HOLLY NJ
400 PM EST WED DEC 13 2017

NOTE:  "FAIR" INDICATES FEW OR NO CLOUDS BELOW 12,000 FEET WITH NO
SIGNIFICANT WEATHER AND/OR OBSTRUCTIONS TO VISIBILITY.

 * = STATION DOES NOT REPORT PRECIPITATION (E.G. RAIN, SNOW, ETC.)
        OR FOG.

NJZ015>026-132200-
SOUTHERN NEW JERSEY

CITY           SKY/WX    TMP DP  RH WIND       PRES   REMARKS
POMONA         CLEAR     31   6  35 W16G28    29.71S WCI  20
WILDWOOD*      CLEAR     30  10  43 W13G23    29.76R WCI  20
MILLVILLE      CLEAR     30   7  37 W14       29.73S WCI  19
WRIGHTSTOWN    CLEAR     29   6  36 W18G24    29.65R WCI  17
MOUNT HOLLY    CLEAR     30   5  34 W15G22    29.70R WCI  19
TRENTON        CLEAR     30   6  36 W8G22     29.66S WCI  22

$$
NJZ001>014-132200-
NORTHERN NEW JERSEY

CITY           SKY/WX    TMP DP  RH WIND       PRES   REMARKS
SUSSEX         CLEAR     27   3  35 W10G18    29.59R WCI  17
ANDOVER*         N/A     27   5  39 VRB3      29.59R
MORRISTOWN     PTCLDY    28   9  43 W12G25    29.62R WCI  18
NEWARK         PTCLDY    31   6  35 W25       29.61R WCI  17
TETERBORO      CLEAR     31   3  30 W17G31    29.59R WCI  19
CALDWELL       CLEAR     29   3  33 NW13G26   29.61R WCI  19
SOMERVILLE     CLEAR     28   7  41 MISG      29.63R
ALLAIRE*       CLEAR     28   8  43 W18G30    29.65R WCI  15
TOMS RIVER*    CLEAR     30   8  39 W17G24    29.68R WCI  18

$$
PAZ043-044-047-054-055-060>062-066>071-132200-
EASTERN PENNSYLVANIA

CITY           SKY/WX    TMP DP  RH WIND       PRES   REMARKS
PHILADELPHIA   PTCLDY    30   3  31 W18G31    29.72S WCI  18
NORTH PHILA    CLEAR     31   6  35 W18G26    29.71R WCI  19
BLUE BELL*     CLEAR     28   7  40 W8G17     29.70R WCI  20
DOYLESTOWN     CLEAR     27   6  41 W10G24    29.66R WCI  17
QUAKERTOWN*    CLEAR     27   7  43 W9G16     29.66S WCI  17
PERKASIE*      FAIR      27   5  39 W14G22    29.67R WCI  15
POTTSTOWN      CLEAR     26   5  40 W12       29.70R WCI  16
LANCASTER      CLEAR     27   5  39 W15       29.70S WCI  15
COATESVILLE    CLEAR     27   3  36 W15       29.69S WCI  15
READING        CLEAR     27   6  41 W16       29.68S WCI  15
ALLENTOWN      CLEAR     28   5  37 W16G23    29.66R WCI  16
MOUNT POCONO   CLOUDY    19   4  51 W16       29.51R WCI   4
HAZLETON       PTCLDY    23   5  46 W9        29.61R WCI  13
LEHIGHTON      FAIR      28   5  37 W13       29.67R WCI  18
WILKES BARRE   MOCLDY    25   4  40 NW10      29.59R WCI  15

$$
DEZALL-MDZ008-012-015-019-020-132200-
DELAWARE AND EASTERN MARYLAND

CITY           SKY/WX    TMP DP  RH WIND       PRES   REMARKS
WILMINGTON     CLEAR     30   3  31 W18       29.73S WCI  18
DOVER          CLEAR     30   8  39 W13G21    29.74S WCI  20
GEORGETOWN     CLEAR     32   7  35 W9G21     29.77F WCI  24
EASTON         PTCLDY    32   7  34 W12       29.80F WCI  23
ABERDEEN       PTCLDY    28   3  34 W9G17     29.75F WCI  20
PATUXENT       MOCLDY    33   8  35 SW12      29.79F WCI  24
OCEAN CITY     CLEAR     31   9  39 W12G24    29.79S WCI  22
WALLOPS ISLAND CLEAR     32  11  41 W12       29.81S WCI  23
CAMBRIDGE      CLEAR     32   7  34 VRB7G16   29.78F WCI  26
SALISBURY      PTCLDY    31  10  41 W15       29.78F WCI  20

$$
PAZ001-021-NYZ056-072-MDZ011-DCZ001-132200-
OTHER NEARBY LOCATIONS

CITY           SKY/WX    TMP DP  RH WIND       PRES   REMARKS
HARRISBURG     PTCLDY    28   7  41 W10       29.71F WCI  19
STATE COLLEGE  PTCLDY    21   7  53 W9        29.66S WCI  11
WILLIAMSPORT   PTCLDY    26   5  40 W12       29.66S WCI  16
BINGHAMTON     CLEAR     17   1  49 NW10G26   29.53S WCI   5
NEW YORK CITY  CLEAR     30   4  33 W12G26    29.62R WCI  20
BALTIMORE      PTCLDY    31   7  36 W10       29.75S WCI  22
WASHINGTON DC  PTCLDY    35   6  29 SW10      29.78F WCI  27

$$




USA.gov is the U.S. government's official web portal to all federal, state and local government web resources and services.